Погода Актобе

Погода Актобе : погода сейчас, прогноз погоды и архив. Всё, что Вы хотите узнать о погоде Актобе!

Хотите узнать прогноз погоды Актобе? Тогда Вам сюда: Погода Актобе

Поиск расширенной информации на нашем сайте:

Другие новости

Новости СМИ2

Главная страница сайта

Новости сайта

03.07.2017

Напоминаем, что на нашем специализированном сайте Метеоцентр.Азия вы можете получить высокодетализированные автоматические прогнозы погоды по пунктам России, СНГ и мира в авиационном формате (включающие направление и скорость ветра, видимость, явления погоды, количество и форму облачности, нижнюю и верхнюю границу облачности).


Погода Актобе - сегодня

Время (UTC), дата Ветер
(°,м/с) 
Видим.   Явления Облачность Т
(°С)
Тd
(°С)
f(%) Тe
(°С)
Pmin
(гПа)
dP
(гПа)
Po
(мм)
O2
(г/м3)
Тmin Tmax R s Состояние
почвы
21 18.02.18 160 (Ю) н/о    10/10 600 м 
[Sc]
-15.3 -18.1 79 -18  1037.5  -0.9  756  324           
00 19.02.18 160 (Ю) н/о    10/10 600 м 
[Sc]
-12.9 -15.6 80 -15  1035.5  -1.7  755  321           
06 19.02.18 150 (ЮВ) 20000 м    3/0 верхняя 
[Ci fib]
-11.8 -16.5 68 -14  1033.7  -1  754  319  -15.4         
09 19.02.18 150 (ЮВ) 20000 м    3/0 верхняя 
[Ci fib]
-7.4 -13.9 60 -11  1032.1  -1.1  753  313           
12 19.02.18 150 (ЮВ) 20000 м    4/0 верхняя 
[Ci fib]
-7.3 -14.9 55 -11  1030.2  -1.9  751  312           
15 19.02.18 140 (ЮВ) н/о    6/0 средняя 
[Ac trans]
-11.3 -15.7 70 -13  1029.6  -1  751  317    -6.8       
18 19.02.18 160 (Ю) н/о    10/0 средняя 
[Ac As]
-11.6 -15.6 72 -14  1027.5  -2  749  317    -6.8       
21 19.02.18 180 (Ю) н/о    10/0 средняя 
[Ac As]
-10.5 -13.9 76 -12  1025.5  -1.9  748  315           
00 20.02.18 170 (Ю) н/о    10/0 средняя 
[Ac As]
-10.6 -14.2 75 -10  1024.1  -1.3  747  314           
06 20.02.18 180 (Ю) 20000 м    8/0 средняя, верхняя 
[Ac und|Ci fib]
-8.6 -12.4 74 -8  1020.9  -1.5  744  311  -12.5         
09 20.02.18 190 (Ю) 20000 м    10/5 600 м средняя 
[Sc|Ac As]
-5.6 -9.5 74 -7  1019.2  -1.4  743  307           
12 20.02.18 190 (Ю) 20000 м    10/3 600 м средняя 
[Sc|Ac As]
-4.6 -8.9 72 -4  1017.9  -1.1  743  305           
15 20.02.18 200 (Ю) н/о    10/3 600 м средняя 
[Sc|Ac As]
-5.7 -7.9 84 -5  1017.2  -0.8  742  306    -4.5       
18 20.02.18 200 (Ю) н/о    10/4 600 м средняя 
[Sc|Ac As]
-8.3 -10.6 83 -8  1017  -0.4  742  309    -4.5       
21 20.02.18 250 (З) н/о    6/0 средняя 
[Ac As]
-9.9 -11.6 87 -10  1017.2  742  311           
03 21.02.18 340 (С) н/о  слаб. снег  10/0 средняя 
[As op]
-7.9 -9.7 87 -11  1019.3  1.4  743  309      0.2  18  равномерный
сухой снег
100% 
09 21.02.18 320 (СЗ) 20000 м    10/10 600 м 
[Sc]
-6.2 -9.8 76 -8  1022.4  746  308           
21 21.02.18 260 (З) н/о  слаб. снег  10/10 600 м 
[Sc]
-7.6 -9.8 84 -9  1026.4  0.9  749  311           
03 22.02.18 300 (СЗ) н/о  слаб. снег  10/10 600 м 
[Sc]
-8.1 -10.4 83 -10  1026.2  0.1  748  312      0.2  18  равномерный
сухой снег
100% 
09 22.02.18 230 (ЮЗ) 20000 м    4/4 1000 м 
[Sc]
-6.9 -10.7 74 -8  1025.8  -0.6  748  310           
21 22.02.18 170 (Ю) н/о  {снег}  8/6 600 м средняя 
[Sc|Ac As]
-10.3 -12.2 86 -10  1024.8  -0.5  747  314           
03 23.02.18 160 (Ю) н/о  снег  10/10 600 м 
[Sc]
-7.9 -9.7 87 -8  1022.7  -0.9  746  310      0.3  19  равномерный
сухой снег
100% 
09 23.02.18 260 (З) 20000 м    5/0 средняя 
[Ac As]
-4.1 -7.9 75 -4  1022  -0.4  746  306           
12 23.02.18 320 (СЗ) 20000 м    10/5 600 м средняя 
[Sc|Ac As]
-6.1 -8.8 81 -8  1022.4  0.2  746  308           
21 23.02.18 тихо ()   н/о  слаб. снег  10/0 средняя 
[As op]
-16.2 -17.1 93 -16  1025.4  0.1  747  321           
Время (UTC), дата Ветер
(°,м/с) 
Видим.   Явления Облачность Т
(°С)
Тd
(°С)
f(%) Тe
(°С)
Pmin
(гПа)
dP
(гПа)
Po
(мм)
O2
(г/м3)
Тmin Tmax R s Состояние
почвы

Для получения пояснительной информации подведите курсор к названию столбца.

ПОГОДА Актобе - архив

Всё, что Вы хотите узнать о погоде Актобе - удобно и подробно!

Выберите нужную дату (начиная с 1 января 2015* года) и нажмите кнопку "Найти".
Будут отображены архивные сводки погоды по пункту Актобе, начиная с указанной даты.


Отображать данные в формате CSV (для использования в таблицах Excel)


Внимание! Наш архив погоды предназначен исключительно для личного некоммерческого использования в познавательных целях. Если Вам необходимы официальные справки о состоянии погоды (для производственных, юридических, коммерческих и т.п. целей), обращайтесь в органы Росгидромета.

*Примечание: данная дата относится к архиву по метеостанциям СССР (Россия, СНГ, Балтия).
Архив по метеостанциям Зарубежной Европы и Азии (кроме Китая) хранится 10 дней, по другим регионам земного шара (Китай, Африка, Америка, Австралия, Океания) - 1 день.

Актобе - район местоположения метеостанции


Название, широта, долгота, высота метеостанции:
Актобе (город) 50.3°ш. 57.2°д. 219 м над ур. моря [Казахстан]

Дополнительная информация

В oтличие oт бoльшинства пoгoдных сайтoв мы публикуем пoдрoбную метеoинфoрмацию в детальнoм прoфессиoнальнoм фoрмате.

Характеристики температуры и влажнoсти вoздуха измеряются на высoте 2 м в тени вдали oт зданий и деревьев.
Скoрoсть ветра измеряется на высoте 10 м (на урoвне рoста челoвека скoрoсть ветра ниже в 1.5-2 раза). Если метеoстанция нахoдится в гoрoде или в лесу, тo скoрoсть ветра занижена на 2-4 м/с пo сравнению с oткрытым местoм. Скoрoсть ветра над акватoриями крупных рек и oзёр, а также на вершинах хoлмoв на 2-5 м/с выше, чем в oбычных услoвиях.
Атмoсфернoе давление в разных тoчках местнoсти мoжет значительнo oтличаться oт давления на метеoстанции, в зависимoсти oт услoвий рельефа (при пoдъёме на 10 м давление пoнижается примернo на 1 мм рт.ст.).